Retour au catalogue

DELTA 1 DEB

ActifPO
NORAD 37645·DEBRIS·🇺🇸 United States

Lancé Mar 5, 1978 depuis Vandenberg Space Force Base

Loading…

Prochains Passages (prochaines 24 heures)

TLE

FraisSource: Space-Track

Époque: Sep 13, 2026, 09:00 UTC

1 37645U 78026JG  26256.37540240  .00000108  00000-0  37175-4 0  9990
2 37645  98.7382 295.3384 0049668 219.5253 152.8087 14.54388664754318

Suivez DELTA 1 DEB en temps réel avec AllMySat

Download on the App Store